FW6433 Weather Reports


time (UTC)temp
C
wind
direction
speed
KPH
gust
KPH
rain 1hr
cm
rain 24hr
cm
rain mn
cm
humidity
%
barometer
mb
20260507104424 10 38 0.0 0.0 0.00 0.00 0.00 83 1022.3
20260507103651 10 85 0.0 0.0 0.00 0.00 0.00 83 1021.9
20260507103645 10 44 0.0 0.0 0.00 0.00 0.00 83 1022.3
20260507102652 10 72 0.0 0.0 0.00 0.00 0.00 83 1022.0
20260507102153 10 74 0.0 0.0 0.00 0.00 0.00 82 1022.0
20260507101651 10 73 0.0 0.0 0.00 0.00 0.00 82 1021.9
20260507101151 10 74 0.0 0.0 0.00 0.00 0.00 82 1021.9
20260507100651 10 74 0.0 0.0 0.00 0.00 0.00 82 1021.8
20260507100406 10 70 0.0 0.0 0.00 0.00 0.00 82 1022.2
20260507095641 10 77 0.0 0.0 0.00 0.00 0.00 81 1022.1
20260507095408 10 141 0.0 0.0 0.00 0.00 0.00 81 1022.1
20260507094642 10 83 0.0 0.0 0.00 0.00 0.00 81 1022.0
20260507094130 10 61 0.0 0.0 0.00 0.00 0.00 82 1022.1
20260507093621 10 234 0.0 0.0 0.00 0.00 0.00 83 1022.1
20260507093122 10 74 0.0 0.0 0.00 0.00 0.00 82 1021.8
20260507092622 11 76 0.0 0.0 0.00 0.00 0.00 81 1021.9
20260507092119 11 46 0.0 0.0 0.00 0.00 0.00 82 1021.9
20260507092112 11 72 0.0 0.0 0.00 0.00 0.00 82 1022.0
20260507091110 11 16 0.0 0.0 0.00 0.00 0.00 81 1021.8
20260507090607 11 81 0.0 0.0 0.00 0.00 0.00 80 1022.1
20260507090107 11 195 0.0 0.0 0.00 0.00 0.00 79 1021.9
20260507085604 11 74 0.0 1.6 0.00 0.00 0.00 78 1021.9
20260507085103 11 202 0.0 4.8 0.00 0.00 0.00 77 1021.9
20260507084557 11 236 1.6 4.8 0.00 0.00 0.00 77 1021.9
20260507084051 11 212 0.0 4.8 0.00 0.00 0.00 78 1022.1
20260507083552 12 201 0.0 0.0 0.00 0.00 0.00 79 1022.0
20260507083315 12 224 0.0 3.2 0.00 0.00 0.00 79 1022.1
20260507082550 12 212 0.0 3.2 0.00 0.00 0.00 79 1022.1
20260507082315 12 210 0.0 0.0 0.00 0.00 0.00 79 1021.9
20260507081550 12 222 0.0 1.6 0.00 0.00 0.00 79 1022.0
20260507081051 12 177 0.0 4.8 0.00 0.00 0.00 80 1021.8
20260507080550 12 174 1.6 4.8 0.00 0.00 0.00 80 1022.2
20260507080050 12 215 3.2 4.8 0.00 0.00 0.00 80 1021.9
20260507075549 12 160 0.0 4.8 0.00 0.00 0.00 80 1022.0
20260507075039 12 126 0.0 4.8 0.00 0.00 0.00 80 1022.2
20260507074805 12 191 0.0 4.8 0.00 0.00 0.00 80 1022.0
20260507074028 12 194 4.8 4.8 0.00 0.00 0.00 79 1022.1
20260507073756 12 187 0.0 3.2 0.00 0.00 0.00 79 1022.2
20260507073522 12 216 0.0 3.2 0.00 0.00 0.00 78 1022.0
20260507072530 12 204 0.0 4.8 0.00 0.00 0.00 78 1022.0
20260507072253 12 210 0.0 4.8 0.00 0.00 0.00 78 1022.1
20260507071525 12 223 0.0 3.2 0.00 0.00 0.00 78 1021.9
20260507071038 12 217 0.0 4.8 0.00 0.00 0.00 78 1022.0
20260507070541 12 223 0.0 6.4 0.00 0.00 0.00 78 1021.9
20260507070038 12 176 1.6 6.4 0.00 0.00 0.00 77 1021.8
20260507065522 12 203 0.0 6.4 0.00 0.00 0.00 78 1022.0
20260507065514 12 210 6.4 6.4 0.00 0.00 0.00 77 1021.9
20260507064516 12 208 0.0 4.8 0.00 0.00 0.00 77 1022.0
20260507064016 12 192 1.6 9.7 0.00 0.00 0.00 77 1022.0
20260507063739 12 233 3.2 9.7 0.00 0.00 0.00 77 1022.2
20260507063239 12 224 4.8 9.7 0.00 0.00 0.00 77 1021.9
20260507063008 12 195 1.6 6.4 0.00 0.00 0.00 77 1021.9
20260507062017 12 217 3.2 6.4 0.00 0.00 0.00 77 1021.9
20260507062000 12 226 1.6 6.4 0.00 0.00 0.00 77 1021.9
20260507061016 12 230 0.0 6.4 0.00 0.00 0.00 77 1022.0
20260507061010 12 214 3.2 6.4 0.00 0.00 0.00 76 1021.9
20260507060017 12 231 6.4 6.4 0.00 0.00 0.00 76 1021.8
20260507055517 13 240 3.2 6.4 0.00 0.00 0.00 75 1021.8
20260507055015 13 214 0.0 6.4 0.00 0.00 0.00 75 1021.9
20260507054516 13 229 3.2 4.8 0.00 0.00 0.00 75 1021.9
20260507054016 13 246 0.0 6.4 0.00 0.00 0.00 75 1021.9
20260507053515 13 224 1.6 9.7 0.00 0.00 0.00 74 1021.9
20260507053241 13 206 1.6 9.7 0.00 0.00 0.00 74 1021.7
20260507052744 13 223 0.0 9.7 0.00 0.00 0.00 73 1022.0
20260507052007 13 230 0.0 9.7 0.00 0.00 0.00 72 1021.8
20260507051505 13 223 0.0 6.4 0.00 0.00 0.00 72 1021.8
20260507050956 13 257 0.0 9.7 0.00 0.00 0.00 71 1022.1
20260507050455 13 205 3.2 9.7 0.00 0.00 0.00 71 1022.0
20260507045954 13 203 6.4 9.7 0.00 0.00 0.00 70 1022.0
20260507045458 13 241 1.6 6.4 0.00 0.00 0.00 71 1021.8
20260507045216 13 199 1.6 12.9 0.00 0.00 0.00 70 1021.8
20260507044451 13 216 1.6 12.9 0.00 0.00 0.00 70 1022.0
20260507043949 13 240 9.7 11.3 0.00 0.00 0.00 70 1021.9
20260507043447 13 203 0.0 3.2 0.00 0.00 0.00 70 1021.8
20260507042946 13 203 0.0 3.2 0.00 0.00 0.00 70 1021.8
20260507042440 13 217 0.0 3.2 0.00 0.00 0.00 69 1022.0
20260507041932 13 190 0.0 4.8 0.00 0.00 0.00 70 1021.8
20260507041438 13 181 0.0 4.8 0.00 0.00 0.00 70 1021.8
20260507040930 13 219 0.0 1.6 0.00 0.00 0.00 69 1021.7
20260507040430 13 214 0.0 0.0 0.00 0.00 0.00 69 1021.7
20260507035920 14 215 0.0 3.2 0.00 0.00 0.00 69 1021.5
20260507035418 13 202 0.0 3.2 0.00 0.00 0.00 69 1021.7
20260507034918 14 219 0.0 4.8 0.00 0.00 0.00 69 1021.7
20260507034418 14 216 3.2 4.8 0.00 0.00 0.00 68 1021.6
20260507033916 14 216 0.0 9.7 0.00 0.00 0.00 68 1021.5
20260507033419 14 214 4.8 9.7 0.00 0.00 0.00 68 1021.4
20260507032915 14 247 0.0 6.4 0.00 0.00 0.00 68 1021.4
20260507032415 14 221 0.0 3.2 0.00 0.00 0.00 68 1021.4
20260507031907 14 225 0.0 6.4 0.00 0.00 0.00 67 1021.4
20260507031623 14 250 0.0 6.4 0.00 0.00 0.00 67 1021.1
20260507030857 14 244 1.6 6.4 0.00 0.00 0.00 67 1021.2
20260507030410 14 238 0.0 9.7 0.00 0.00 0.00 68 1021.3
20260507025855 14 208 1.6 9.7 0.00 0.00 0.00 67 1021.0
20260507025357 14 198 0.0 4.8 0.00 0.00 0.00 67 1021.1
20260507024854 14 218 1.6 6.4 0.00 0.00 0.00 67 1021.3
20260507024621 15 215 0.0 6.4 0.00 0.00 0.00 67 1021.1
20260507023853 15 217 0.0 4.8 0.00 0.00 0.00 67 1021.3
20260507023355 15 241 1.6 4.8 0.00 0.00 0.00 66 1021.1
20260507022854 15 235 3.2 6.4 0.00 0.00 0.00 66 1021.2
20260507022355 15 243 1.6 11.3 0.00 0.00 0.00 66 1021.2
20260507021853 15 230 4.8 11.3 0.00 0.00 0.00 66 1021.1
20260507021355 15 234 1.6 11.3 0.00 0.00 0.00 66 1021.0
20260507020855 15 256 6.4 11.3 0.00 0.00 0.00 66 1021.3
20260507020631 15 261 0.0 9.7 0.00 0.00 0.00 66 1021.1
20260507015854 15 205 3.2 9.7 0.00 0.00 0.00 66 1021.0
20260507015620 15 240 0.0 9.7 0.00 0.00 0.00 66 1021.3
20260507015124 15 217 3.2 9.7 0.00 0.00 0.00 66 1021.0
20260507014354 15 247 0.0 4.8 0.00 0.00 0.00 65 1020.8
20260507013852 15 221 4.8 4.8 0.00 0.00 0.00 65 1021.0
20260507013353 15 218 0.0 9.7 0.00 0.00 0.00 66 1021.0
20260507012852 15 217 3.2 9.7 0.00 0.00 0.00 65 1021.2
20260507012354 15 221 3.2 6.4 0.00 0.00 0.00 65 1021.2
20260507012120 15 216 0.0 11.3 0.00 0.00 0.00 65 1020.8
20260507011354 15 236 8.0 11.3 0.00 0.00 0.00 65 1021.1
20260507010853 15 221 6.4 6.4 0.00 0.00 0.00 64 1021.1
20260507010354 15 195 0.0 6.4 0.00 0.00 0.00 65 1021.0
20260507010346 15 237 1.6 9.7 0.00 0.00 0.00 64 1021.1
20260507005400 15 226 1.6 9.7 0.00 0.00 0.00 64 1021.2
20260507004852 15 214 4.8 11.3 0.00 0.00 0.00 63 1021.0
20260507004352 15 224 0.0 11.3 0.00 0.00 0.00 64 1021.1
20260507003850 15 261 4.8 9.7 0.00 0.00 0.00 63 1021.0
20260507003346 15 232 1.6 9.7 0.00 0.00 0.00 63 1021.2
20260507002846 16 273 1.6 9.7 0.00 0.00 0.00 63 1021.1
20260507002346 15 226 1.6 12.9 0.00 0.00 0.00 63 1021.1
20260507001840 15 250 1.6 12.9 0.00 0.00 0.00 63 1021.2
20260507001337 15 242 6.4 11.3 0.00 0.00 0.00 62 1021.1
20260507000837 16 237 1.6 11.3 0.00 0.00 0.00 63 1021.2
20260507000328 16 222 4.8 11.3 0.00 0.00 0.00 62 1021.2
20260506235825 16 257 0.0 9.7 0.00 0.00 0.00 62 1021.2
20260506235316 16 213 6.4 6.4 0.00 0.00 0.00 61 1021.2
20260506234817 16 198 3.2 9.7 0.00 0.00 0.00 62 1021.1
20260506234810 16 213 3.2 9.7 0.00 0.00 0.00 62 1021.1
20260506233808 16 249 1.6 4.8 0.00 0.00 0.00 62 1021.2
20260506233309 16 222 0.0 6.4 0.00 0.00 0.00 62 1021.1
20260506232759 15 220 1.6 6.4 0.00 0.00 0.00 63 1021.2
20260506232258 15 289 0.0 11.3 0.00 0.00 0.00 64 1021.2
20260506231747 15 231 1.6 11.3 0.00 0.00 0.00 64 1021.1
20260506231516 15 204 3.2 9.7 0.00 0.00 0.00 63 1021.3
20260506230748 15 229 3.2 9.7 0.00 0.00 0.00 64 1021.2
20260506230237 15 232 3.2 9.7 0.00 0.00 0.00 64 1021.0
20260506225735 15 230 0.0 6.4 0.00 0.00 0.00 64 1021.0
20260506225458 15 231 3.2 6.4 0.00 0.00 0.00 64 1021.2
20260506224732 15 240 0.0 6.4 0.00 0.00 0.00 64 1021.3
20260506224233 15 216 1.6 11.3 0.00 0.00 0.00 64 1021.3
20260506223955 15 206 1.6 11.3 0.00 0.00 0.00 65 1021.4
20260506223233 15 234 3.2 6.4 0.00 0.00 0.00 64 1021.2
20260506222956 15 223 3.2 4.8 0.00 0.00 0.00 65 1021.6
20260506222233 15 269 0.0 11.3 0.00 0.00 0.00 65 1021.5
20260506221731 15 242 3.2 11.3 0.00 0.00 0.00 65 1021.8
20260506221231 15 224 0.0 4.8 0.00 0.00 0.00 66 1021.6
20260506220730 15 252 0.0 4.8 0.00 0.00 0.00 67 1021.6
20260506220230 14 308 1.6 6.4 0.00 0.00 0.00 68 1021.6
20260506215732 15 269 0.0 6.4 0.00 0.00 0.00 67 1021.6
20260506215231 15 316 0.0 4.8 0.00 0.00 0.00 66 1021.8
20260506214731 15 260 0.0 9.7 0.00 0.00 0.00 66 1021.6
20260506214230 15 258 0.0 9.7 0.00 0.00 0.00 66 1022.0
20260506213731 15 234 1.6 6.4 0.00 0.00 0.00 66 1021.5
20260506213231 15 227 0.0 6.4 0.00 0.00 0.00 66 1021.6
20260506212731 15 217 0.0 9.7 0.00 0.00 0.00 66 1021.6
20260506212230 15 298 0.0 9.7 0.00 0.00 0.00 66 1021.6
20260506211731 15 219 3.2 6.4 0.00 0.00 0.00 66 1021.6
20260506211230 14 246 0.0 4.8 0.00 0.00 0.00 70 1021.6
20260506210731 14 353 1.6 4.8 0.00 0.00 0.00 69 1021.6
20260506210230 14 31 1.6 4.8 0.00 0.00 0.00 70 1021.4
20260506205725 14 308 0.0 4.8 0.00 0.00 0.00 71 1021.5
20260506205217 14 337 3.2 6.4 0.00 0.00 0.00 70 1021.5
20260506204717 14 336 3.2 6.4 0.00 0.00 0.00 71 1021.4
20260506204218 14 354 4.8 6.4 0.00 0.00 0.00 70 1021.5
20260506203717 14 353 3.2 4.8 0.00 0.00 0.00 70 1021.5
20260506203218 14 323 1.6 4.8 0.00 0.00 0.00 72 1021.5
20260506202718 14 326 0.0 1.6 0.00 0.00 0.00 72 1021.5
20260506202219 14 349 0.0 0.0 0.00 0.00 0.00 72 1021.3
20260506201718 14 2 0.0 0.0 0.00 0.00 0.00 74 1021.4
20260506201219 13 323 0.0 3.2 0.00 0.00 0.00 73 1021.2
20260506200718 13 296 0.0 3.2 0.00 0.00 0.00 74 1021.3
20260506200217 13 359 1.6 6.4 0.00 0.00 0.00 74 1021.4
20260506200211 13 296 0.0 6.4 0.00 0.00 0.00 74 1021.4
20260506195224 13 303 3.2 6.4 0.00 0.00 0.00 75 1021.2
20260506194715 13 353 0.0 4.8 0.00 0.00 0.00 75 1021.4
20260506194214 13 8 0.0 3.2 0.00 0.00 0.00 75 1021.4
20260506193715 13 359 3.2 4.8 0.00 0.00 0.00 75 1020.9
20260506193215 13 339 0.0 4.8 0.00 0.00 0.00 75 1021.2
20260506192716 13 336 1.6 6.4 0.00 0.00 0.00 74 1021.1
20260506192215 14 285 1.6 6.4 0.00 0.00 0.00 72 1021.2
20260506191717 14 254 0.0 6.4 0.00 0.00 0.00 74 1021.1
20260506191215 14 227 1.6 9.7 0.00 0.00 0.00 74 1021.2
20260506190717 14 175 3.2 9.7 0.00 0.00 0.00 74 1021.1
20260506190216 14 188 0.0 9.7 0.00 0.00 0.00 73 1021.3
20260506185717 14 178 0.0 9.7 0.00 0.00 0.00 73 1021.3
20260506185708 14 167 1.6 6.4 0.00 0.00 0.00 73 1021.2
20260506184716 14 194 0.0 6.4 0.00 0.00 0.00 72 1021.3
20260506184214 14 174 0.0 9.7 0.00 0.00 0.00 73 1021.2
20260506183716 14 231 4.8 9.7 0.00 0.00 0.00 73 1021.3
20260506183444 14 135 0.0 6.4 0.00 0.00 0.00 72 1021.3
20260506182719 14 220 1.6 6.4 0.00 0.00 0.00 73 1021.2
20260506182443 14 247 0.0 6.4 0.00 0.00 0.00 73 1020.9
20260506181717 14 82 0.0 11.3 0.00 0.00 0.00 73 1021.0
20260506181453 14 209 3.2 11.3 0.00 0.00 0.00 73 1021.0
20260506180718 14 192 1.6 11.3 0.00 0.00 0.00 73 1021.0
20260506180215 13 203 0.0 4.8 0.00 0.00 0.00 73 1021.1
20260506175717 13 212 0.0 9.7 0.00 0.00 0.00 73 1021.1
20260506175216 13 162 0.0 9.7 0.00 0.00 0.00 74 1021.0
20260506174717 13 150 0.0 11.3 0.00 0.00 0.00 75 1021.1
20260506174215 13 90 4.8 11.3 0.00 0.00 0.00 74 1021.2
20260506173717 13 188 1.6 9.7 0.00 0.00 0.00 75 1021.2
20260506173436 13 180 6.4 6.4 0.00 0.00 0.00 74 1021.2
20260506172715 13 206 3.2 11.3 0.00 0.00 0.00 74 1021.0
20260506172206 13 243 6.4 11.3 0.00 0.00 0.00 74 1021.2
20260506171707 13 257 4.8 9.7 0.00 0.00 0.00 74 1021.1
20260506171205 13 214 0.0 9.7 0.00 0.00 0.00 75 1021.2
20260506170656 13 159 4.8 9.7 0.00 0.00 0.00 75 1021.2
20260506170153 13 210 1.6 12.9 0.00 0.00 0.00 76 1021.0
20260506165647 13 183 6.4 12.9 0.00 0.00 0.00 76 1021.0
20260506165153 13 207 9.7 12.9 0.00 0.00 0.00 75 1021.0
20260506164636 13 218 0.0 11.3 0.00 0.00 0.00 75 1020.8
20260506164142 13 163 1.6 11.3 0.00 0.00 0.00 75 1020.8
20260506163635 13 210 4.8 11.3 0.00 0.00 0.00 75 1020.7
20260506163142 13 219 3.2 11.3 0.00 0.00 0.00 76 1020.6
20260506162654 13 198 0.0 6.4 0.00 0.00 0.00 78 1020.4
20260506162645 13 213 1.6 6.4 0.00 0.00 0.00 77 1020.6
20260506161636 13 198 0.0 6.4 0.00 0.00 0.00 79 1020.5
20260506161154 13 91 3.2 4.8 0.00 0.00 0.00 79 1020.5
20260506160637 13 181 0.0 4.8 0.00 0.00 0.00 79 1020.6
20260506160154 12 212 0.0 4.8 0.00 0.00 0.00 80 1020.7
20260506155636 12 156 3.2 4.8 0.00 0.00 0.00 80 1020.9
20260506155142 12 239 1.6 4.8 0.00 0.00 0.00 80 1020.6
20260506154636 12 192 0.0 6.4 0.00 0.00 0.00 81 1020.9
20260506154409 12 194 0.0 6.4 0.00 0.00 0.00 81 1020.7
20260506153635 12 165 0.0 4.8 0.00 0.00 0.00 81 1020.6
20260506153143 12 163 0.0 6.4 0.00 0.00 0.00 81 1020.6
20260506152909 12 173 0.0 6.4 0.00 0.00 0.00 82 1020.5
20260506152142 12 99 0.0 3.2 0.00 0.00 0.00 81 1020.6
20260506151635 12 180 0.0 4.8 0.00 0.00 0.00 81 1020.8
20260506151140 12 173 1.6 3.2 0.00 0.00 0.00 80 1020.7
20260506150625 12 198 0.0 3.2 0.00 0.00 0.00 80 1020.6
20260506150130 12 178 1.6 4.8 0.00 0.00 0.00 80 1020.7
20260506145623 12 204 0.0 9.7 0.00 0.00 0.00 80 1020.9
20260506145128 12 219 3.2 9.7 0.00 0.00 0.00 80 1020.8
20260506144623 12 225 0.0 4.8 0.00 0.00 0.00 80 1020.6
20260506144123 12 184 0.0 3.2 0.00 0.00 0.00 81 1020.5
20260506143616 12 236 0.0 4.8 0.00 0.00 0.00 80 1020.3
20260506143609 12 137 1.6 4.8 0.00 0.00 0.00 80 1020.1
20260506142613 12 162 0.0 3.2 0.00 0.00 0.00 80 1020.1
20260506142122 12 184 0.0 4.8 0.00 0.00 0.00 80 1020.3
20260506141613 12 129 0.0 4.8 0.00 0.00 0.00 80 1020.4
20260506141123 12 175 0.0 3.2 0.00 0.00 0.00 79 1020.3
20260506140613 12 204 0.0 4.8 0.00 0.00 0.00 79 1020.5
20260506140346 12 168 0.0 6.4 0.00 0.00 0.00 80 1020.2
20260506135613 12 149 4.8 6.4 0.00 0.00 0.00 80 1020.1
20260506135354 12 210 3.2 4.8 0.00 0.00 0.00 80 1020.5
20260506134614 12 201 0.0 3.2 0.00 0.00 0.00 81 1020.1
20260506134125 12 219 0.0 3.2 0.00 0.00 0.00 82 1020.3
20260506133841 12 194 0.0 3.2 0.00 0.00 0.00 82 1020.0
20260506133110 12 236 0.0 3.2 0.00 0.00 0.00 82 1020.2
20260506132604 12 194 0.0 9.7 0.00 0.00 0.00 82 1020.0
20260506132110 12 194 0.0 9.7 0.00 0.00 0.00 82 1019.8
20260506131604 12 85 1.6 4.8 0.00 0.00 0.00 82 1020.0
20260506131109 12 181 0.0 1.6 0.00 0.00 0.00 82 1019.8
20260506130823 12 165 0.0 4.8 0.00 0.00 0.00 83 1019.9
20260506130104 12 180 0.0 4.8 0.00 0.00 0.00 83 1019.9
20260506125559 12 156 0.0 1.6 0.00 0.00 0.00 83 1019.7
20260506125103 12 87 0.0 4.8 0.00 0.00 0.00 83 1019.8
20260506124549 12 176 0.0 4.8 0.00 0.00 0.00 83 1019.8
20260506124052 12 212 0.0 4.8 0.00 0.00 0.00 83 1019.7
20260506123546 12 209 0.0 6.4 0.00 0.00 0.00 83 1019.8
20260506123050 12 156 0.0 6.4 0.00 0.00 0.00 83 1019.5
20260506122537 12 233 0.0 6.4 0.00 0.00 0.00 84 1019.7
20260506122039 12 220 0.0 6.4 0.00 0.00 0.00 84 1019.7
20260506121533 12 221 0.0 3.2 0.00 0.00 0.00 84 1019.6
20260506121037 12 167 0.0 4.8 0.00 0.00 0.00 84 1019.5
20260506120531 12 207 0.0 4.8 0.00 0.00 0.00 84 1019.6
20260506120036 12 199 0.0 4.8 0.00 0.00 0.00 83 1019.5
20260506115531 12 188 0.0 6.4 0.00 0.00 0.00 83 1019.3
20260506115034 12 201 0.0 6.4 0.00 0.00 0.00 82 1019.2
20260506114520 12 138 1.6 3.2 0.00 0.00 0.00 82 1019.1
20260506114025 12 189 0.0 3.2 0.00 0.00 0.00 81 1019.5
20260506113511 12 196 1.6 4.8 0.00 0.00 0.00 81 1019.4
20260506113015 13 235 1.6 4.8 0.00 0.00 0.00 81 1019.4
20260506112512 13 230 0.0 9.7 0.00 0.00 0.00 80 1019.3
20260506112017 13 173 1.6 9.7 0.00 0.00 0.00 80 1019.4
20260506111739 13 174 0.0 3.2 0.00 0.00 0.00 80 1019.4
20260506111029 13 196 0.0 3.2 0.00 0.00 0.00 80 1019.3
20260506110509 13 197 0.0 4.8 0.00 0.00 0.00 79 1019.1
20260506110016 13 219 0.0 4.8 0.00 0.00 0.00 79 1019.0
20260506105509 13 196 0.0 4.8 0.00 0.00 0.00 79 1019.3
20260506105016 13 201 0.0 4.8 0.00 0.00 0.00 79 1019.2
20260506104510 13 213 0.0 3.2 0.00 0.00 0.00 78 1019.1